This is the latest recevied weather packets stored in our database for station/object KC1DMA. If no packets are shown the sender has not sent any weather packets the latest 10 day(s).
| Time | Temp. | Humidity | Pressure | Rain* | Wind** | Luminosity | Snow |
|---|---|---|---|---|---|---|---|
| 1777916107 | 20° C | 38% | 1012.2 hPa | - | - | 870 W/m² | - |
| 1777915805 | 19.44° C | 36% | 1012 hPa | - | - | 854 W/m² | - |
| 1777915500 | 20° C | 36% | 1012.1 hPa | - | - | 841 W/m² | - |
| 1777915197 | 18.89° C | 35% | 1012 hPa | - | - | 839 W/m² | - |
| 1777914894 | 18.89° C | 36% | 1012 hPa | - | - | 844 W/m² | - |
| 1777914591 | 18.89° C | 34% | 1012.1 hPa | - | - | 843 W/m² | - |
| 1777914287 | 18.89° C | 36% | 1012.1 hPa | - | - | 863 W/m² | - |
| 1777913985 | 18.89° C | 36% | 1012.1 hPa | - | - | 855 W/m² | - |
| 1777913680 | 18.89° C | 35% | 1012.1 hPa | - | - | 852 W/m² | - |
| 1777913378 | 18.33° C | 36% | 1012.1 hPa | - | - | 846 W/m² | - |
| 1777913074 | 18.33° C | 36% | 1012 hPa | - | - | 849 W/m² | - |
| 1777912771 | 18.89° C | 35% | 1012.2 hPa | - | - | 848 W/m² | - |
| 1777912466 | 18.33° C | 34% | 1012.1 hPa | - | - | 842 W/m² | - |
| 1777912163 | 18.33° C | 36% | 1012.3 hPa | - | - | 845 W/m² | - |
| 1777911859 | 18.89° C | 35% | 1012.5 hPa | - | - | 845 W/m² | - |
| 1777911556 | 18.33° C | 35% | 1012.8 hPa | - | - | 844 W/m² | - |
| 1777911252 | 18.33° C | 34% | 1012.4 hPa | - | - | 841 W/m² | - |
| 1777910949 | 18.33° C | 35% | 1012.6 hPa | - | - | 831 W/m² | - |
| 1777910647 | 18.89° C | 35% | 1012.6 hPa | - | - | 831 W/m² | - |
| 1777910343 | 18.33° C | 34% | 1012.7 hPa | - | - | 831 W/m² | - |
| 1777910040 | 18.33° C | 34% | 1013.1 hPa | - | - | 831 W/m² | - |
| 1777909737 | 18.89° C | 35% | 1013 hPa | - | - | 819 W/m² | - |
| 1777909434 | 17.78° C | 35% | 1013.2 hPa | - | - | 839 W/m² | - |
| 1777909132 | 17.78° C | 36% | 1013.1 hPa | - | - | 774 W/m² | - |
| 1777908830 | 17.78° C | 34% | 1013.2 hPa | - | - | 786 W/m² | - |
* Rain since midnight (hover to see other rain measurements)
** Current wind speed in m/s (hover to see current wind gust speed)